| time (UTC) | temp C | wind direction | speed KPH | gust KPH | rain 1hr cm | rain 24hr cm | rain mn cm | humidity % | barometer mb |
| 20260902131517 | 33 | 264 | 4.8 | 11.3 | 0.00 | 0.00 | 0.00 | 25 | 1021.7 |
| 20260902130517 | 34 | 262 | 3.2 | 9.7 | 0.00 | 0.00 | 0.00 | 25 | 1021.9 |
| 20260902125557 | 33 | 218 | 1.6 | 8.0 | 0.00 | 0.00 | 0.00 | 25 | 1021.9 |
| 20260902124516 | 33 | 192 | 3.2 | 6.4 | 0.00 | 0.00 | 0.00 | 27 | 1022.2 |
| 20260902123516 | 33 | 264 | 3.2 | 6.4 | 0.00 | 0.00 | 0.00 | 28 | 1022.3 |
| 20260902122556 | 32 | 121 | 3.2 | 6.4 | 0.00 | 0.00 | 0.00 | 28 | 1022.2 |
| 20260902121517 | 32 | 112 | 6.4 | 11.3 | 0.00 | 0.00 | 0.00 | 29 | 1022.2 |
| 20260902120557 | 32 | 208 | 4.8 | 11.3 | 0.00 | 0.00 | 0.00 | 30 | 1022.3 |
| 20260902115516 | 31 | 266 | 1.6 | 8.0 | 0.00 | 0.00 | 0.00 | 26 | 1022.4 |
| 20260902114516 | 31 | 295 | 3.2 | 8.0 | 0.00 | 0.00 | 0.00 | 31 | 1022.6 |
| 20260902113516 | 31 | 294 | 3.2 | 9.7 | 0.00 | 0.00 | 0.00 | 32 | 1022.7 |
| 20260902112517 | 31 | 300 | 3.2 | 8.0 | 0.00 | 0.00 | 0.00 | 36 | 1022.8 |
| 20260902111516 | 31 | 245 | 1.6 | 4.8 | 0.00 | 0.00 | 0.00 | 39 | 1023.0 |
| 20260902110517 | 30 | 102 | 3.2 | 6.4 | 0.00 | 0.00 | 0.00 | 41 | 1023.0 |
| 20260902105557 | 29 | 277 | 1.6 | 8.0 | 0.00 | 0.00 | 0.00 | 43 | 1022.9 |
| 20260902104517 | 29 | 256 | 3.2 | 8.0 | 0.00 | 0.00 | 0.00 | 45 | 1023.1 |
| 20260902103517 | 28 | 282 | 3.2 | 6.4 | 0.00 | 0.00 | 0.00 | 47 | 1023.2 |
| 20260902102517 | 28 | 204 | 4.8 | 9.7 | 0.00 | 0.00 | 0.00 | 48 | 1023.2 |
| 20260902101517 | 28 | 261 | 1.6 | 6.4 | 0.00 | 0.00 | 0.00 | 51 | 1023.2 |
| 20260902100517 | 27 | 280 | 1.6 | 8.0 | 0.00 | 0.00 | 0.00 | 53 | 1023.1 |
| 20260902095557 | 27 | 254 | 1.6 | 8.0 | 0.00 | 0.00 | 0.00 | 55 | 1023.1 |
| 20260902094517 | 27 | 43 | 1.6 | 4.8 | 0.00 | 0.00 | 0.00 | 54 | 1023.3 |
| 20260902093517 | 27 | 211 | 3.2 | 6.4 | 0.00 | 0.00 | 0.00 | 54 | 1023.3 |
| 20260902092517 | 27 | 99 | 1.6 | 4.8 | 0.00 | 0.00 | 0.00 | 53 | 1023.2 |
| 20260902091516 | 26 | 123 | 1.6 | 4.8 | 0.00 | 0.00 | 0.00 | 55 | 1023.2 |
| 20260902090517 | 26 | 125 | 0.0 | 4.8 | 0.00 | 0.00 | 0.00 | 55 | 1023.1 |
| 20260902085517 | 25 | 69 | 1.6 | 4.8 | 0.00 | 0.00 | 0.00 | 57 | 1023.0 |
| 20260902084516 | 25 | 32 | 1.6 | 6.4 | 0.00 | 0.00 | 0.00 | 55 | 1023.1 |
| 20260902083517 | 24 | 61 | 1.6 | 4.8 | 0.00 | 0.00 | 0.00 | 57 | 1023.0 |
| 20260902082517 | 23 | 25 | 0.0 | 4.8 | 0.00 | 0.00 | 0.00 | 56 | 1022.9 |
| 20260902081517 | 23 | 70 | 1.6 | 4.8 | 0.00 | 0.00 | 0.00 | 55 | 1022.9 |
| 20260902080517 | 22 | 68 | 0.0 | 3.2 | 0.00 | 0.00 | 0.00 | 56 | 1022.8 |
| 20260902075516 | 22 | 0.0 | 4.8 | 0.00 | 0.00 | 0.00 | 56 | 1022.6 | |
| 20260902074557 | 21 | 62 | 3.2 | 8.0 | 0.00 | 0.00 | 0.00 | 56 | 1022.3 |
| 20260902073517 | 21 | 70 | 4.8 | 8.0 | 0.00 | 0.00 | 0.00 | 58 | 1022.2 |
| 20260902072517 | 21 | 45 | 3.2 | 9.7 | 0.00 | 0.00 | 0.00 | 57 | 1022.2 |
| 20260902071517 | 20 | 45 | 4.8 | 8.0 | 0.00 | 0.00 | 0.00 | 54 | 1022.1 |
| 20260902070517 | 20 | 47 | 4.8 | 8.0 | 0.00 | 0.00 | 0.00 | 51 | 1022.2 |
| 20260902065517 | 19 | 44 | 6.4 | 11.3 | 0.00 | 0.00 | 0.00 | 51 | 1022.0 |
| 20260902064517 | 19 | 43 | 8.0 | 12.9 | 0.00 | 0.00 | 0.00 | 50 | 1022.1 |
| 20260902063517 | 19 | 50 | 4.8 | 9.7 | 0.00 | 0.00 | 0.00 | 49 | 1021.9 |
| 20260902062517 | 18 | 47 | 6.4 | 14.5 | 0.00 | 0.00 | 0.00 | 49 | 1021.7 |
| 20260902061517 | 18 | 46 | 8.0 | 12.9 | 0.00 | 0.00 | 0.00 | 47 | 1021.6 |
| 20260902060517 | 18 | 47 | 8.0 | 11.3 | 0.00 | 0.00 | 0.00 | 46 | 1021.6 |
| 20260902055517 | 18 | 46 | 4.8 | 9.7 | 0.00 | 0.00 | 0.00 | 44 | 1021.6 |
| 20260902054557 | 18 | 50 | 3.2 | 9.7 | 0.00 | 0.00 | 0.00 | 44 | 1021.4 |
| 20260902053517 | 18 | 43 | 6.4 | 9.7 | 0.00 | 0.00 | 0.00 | 43 | 1021.3 |
| 20260902052517 | 19 | 52 | 4.8 | 8.0 | 0.00 | 0.00 | 0.00 | 43 | 1021.1 |
| 20260902051517 | 19 | 62 | 4.8 | 11.3 | 0.00 | 0.00 | 0.00 | 43 | 1021.2 |
| 20260902050517 | 19 | 55 | 4.8 | 9.7 | 0.00 | 0.00 | 0.00 | 43 | 1021.2 |
| 20260902045657 | 19 | 41 | 4.8 | 8.0 | 0.00 | 0.00 | 0.00 | 42 | 1021.0 |
| 20260902044517 | 19 | 59 | 3.2 | 8.0 | 0.00 | 0.00 | 0.00 | 42 | 1020.9 |
| 20260902043517 | 20 | 67 | 3.2 | 8.0 | 0.00 | 0.00 | 0.00 | 41 | 1020.8 |
| 20260902042517 | 20 | 46 | 4.8 | 9.7 | 0.00 | 0.00 | 0.00 | 40 | 1020.9 |
| 20260902041517 | 20 | 42 | 3.2 | 6.4 | 0.00 | 0.00 | 0.00 | 39 | 1020.9 |
| 20260902040517 | 20 | 59 | 3.2 | 8.0 | 0.00 | 0.00 | 0.00 | 38 | 1020.9 |
| 20260902035517 | 20 | 63 | 3.2 | 8.0 | 0.00 | 0.00 | 0.00 | 39 | 1021.0 |
| 20260902034517 | 20 | 76 | 3.2 | 6.4 | 0.00 | 0.00 | 0.00 | 39 | 1021.0 |
| 20260902033517 | 20 | 42 | 3.2 | 8.0 | 0.00 | 0.00 | 0.00 | 39 | 1021.0 |
| 20260902032517 | 20 | 82 | 3.2 | 6.4 | 0.00 | 0.00 | 0.00 | 39 | 1021.1 |
| 20260902031517 | 20 | 82 | 3.2 | 4.8 | 0.00 | 0.00 | 0.00 | 38 | 1021.0 |
| 20260902030517 | 21 | 81 | 3.2 | 8.0 | 0.00 | 0.00 | 0.00 | 38 | 1020.9 |
| 20260902025557 | 21 | 46 | 3.2 | 6.4 | 0.00 | 0.00 | 0.00 | 37 | 1020.9 |
| 20260902024517 | 21 | 56 | 1.6 | 4.8 | 0.00 | 0.00 | 0.00 | 37 | 1020.8 |
| 20260902023517 | 21 | 56 | 3.2 | 4.8 | 0.00 | 0.00 | 0.00 | 36 | 1020.8 |
| 20260902022517 | 21 | 56 | 1.6 | 6.4 | 0.00 | 0.00 | 0.00 | 36 | 1020.6 |
| 20260902021517 | 21 | 47 | 1.6 | 4.8 | 0.00 | 0.00 | 0.00 | 38 | 1020.5 |
| 20260902020517 | 21 | 47 | 1.6 | 8.0 | 0.00 | 0.00 | 0.00 | 38 | 1020.5 |
| 20260902015517 | 21 | 66 | 3.2 | 8.0 | 0.00 | 0.00 | 0.00 | 37 | 1020.4 |
| 20260902014517 | 21 | 13 | 1.6 | 3.2 | 0.00 | 0.00 | 0.00 | 39 | 1020.4 |
| 20260902013515 | 21 | 0.0 | 0.0 | 0.00 | 0.00 | 0.00 | 38 | 1020.3 | |
| 20260902012517 | 21 | 0.0 | 0.0 | 0.00 | 0.00 | 0.00 | 38 | 1020.3 | |
| 20260902011515 | 21 | 0.0 | 0.0 | 0.00 | 0.00 | 0.00 | 38 | 1020.2 | |
| 20260902010517 | 22 | 0.0 | 0.0 | 0.00 | 0.00 | 0.00 | 37 | 1020.3 | |
| 20260902005517 | 22 | 0.0 | 0.0 | 0.00 | 0.00 | 0.00 | 37 | 1020.3 | |
| 20260902004517 | 22 | 0.0 | 0.0 | 0.00 | 0.00 | 0.00 | 36 | 1020.2 | |
| 20260902003517 | 22 | 0.0 | 0.0 | 0.00 | 0.00 | 0.00 | 35 | 1020.2 | |
| 20260902002517 | 22 | 0.0 | 0.0 | 0.00 | 0.00 | 0.00 | 34 | 1020.3 | |
| 20260902001637 | 23 | 0.0 | 0.0 | 0.00 | 0.00 | 0.00 | 34 | 1020.3 | |
| 20260902000517 | 22 | 0.0 | 0.0 | 0.00 | 0.00 | 0.00 | 35 | 1020.1 | |
| 20260901235516 | 22 | 0.0 | 0.0 | 0.00 | 0.00 | 0.00 | 37 | 1020.1 | |
| 20260901234557 | 22 | 0.0 | 0.0 | 0.00 | 0.00 | 0.00 | 37 | 1020.2 | |
| 20260901233557 | 22 | 0.0 | 0.0 | 0.00 | 0.00 | 0.00 | 37 | 1020.1 | |
| 20260901232557 | 22 | 0.0 | 0.0 | 0.00 | 0.00 | 0.00 | 37 | 1020.1 | |
| 20260901231517 | 23 | 0.0 | 0.0 | 0.00 | 0.00 | 0.00 | 36 | 1020.0 | |
| 20260901230557 | 23 | 0.0 | 0.0 | 0.00 | 0.00 | 0.00 | 36 | 1019.9 | |
| 20260901225517 | 23 | 0.0 | 0.0 | 0.00 | 0.00 | 0.00 | 35 | 1019.8 | |
| 20260901224517 | 23 | 0.0 | 0.0 | 0.00 | 0.00 | 0.00 | 37 | 1019.6 | |
| 20260901223516 | 23 | 0.0 | 0.0 | 0.00 | 0.00 | 0.00 | 37 | 1019.4 | |
| 20260901222517 | 23 | 0.0 | 0.0 | 0.00 | 0.00 | 0.00 | 35 | 1019.3 | |
| 20260901221516 | 24 | 0.0 | 0.0 | 0.00 | 0.00 | 0.00 | 36 | 1019.3 | |
| 20260901220516 | 24 | 0.0 | 0.0 | 0.00 | 0.00 | 0.00 | 36 | 1019.2 | |
| 20260901215556 | 24 | 0.0 | 0.0 | 0.00 | 0.00 | 0.00 | 34 | 1019.2 | |
| 20260901214517 | 25 | 0.0 | 0.0 | 0.00 | 0.00 | 0.00 | 33 | 1019.1 | |
| 20260901213516 | 25 | 0.0 | 0.0 | 0.00 | 0.00 | 0.00 | 32 | 1019.1 | |
| 20260901212516 | 25 | 0.0 | 0.0 | 0.00 | 0.00 | 0.00 | 33 | 1019.1 | |
| 20260901211556 | 26 | 0.0 | 0.0 | 0.00 | 0.00 | 0.00 | 31 | 1019.0 | |
| 20260901210517 | 26 | 0.0 | 0.0 | 0.00 | 0.00 | 0.00 | 30 | 1018.9 | |
| 20260901205557 | 26 | 0.0 | 0.0 | 0.00 | 0.00 | 0.00 | 29 | 1018.8 | |
| 20260901204517 | 27 | 0.0 | 0.0 | 0.00 | 0.00 | 0.00 | 29 | 1018.7 | |
| 20260901203517 | 28 | 0.0 | 0.0 | 0.00 | 0.00 | 0.00 | 25 | 1018.5 | |
| 20260901202517 | 28 | 317 | 0.0 | 1.6 | 0.00 | 0.00 | 0.00 | 25 | 1018.5 |
| 20260901201517 | 28 | 317 | 0.0 | 3.2 | 0.00 | 0.00 | 0.00 | 24 | 1018.4 |
| 20260901200517 | 29 | 316 | 1.6 | 3.2 | 0.00 | 0.00 | 0.00 | 23 | 1018.2 |
| 20260901195517 | 29 | 317 | 0.0 | 3.2 | 0.00 | 0.00 | 0.00 | 23 | 1017.9 |
| 20260901194557 | 30 | 316 | 1.6 | 4.8 | 0.00 | 0.00 | 0.00 | 23 | 1017.8 |
| 20260901193517 | 30 | 332 | 1.6 | 4.8 | 0.00 | 0.00 | 0.00 | 23 | 1017.7 |
| 20260901192557 | 30 | 307 | 1.6 | 4.8 | 0.00 | 0.00 | 0.00 | 23 | 1017.4 |
| 20260901191516 | 30 | 287 | 1.6 | 4.8 | 0.00 | 0.00 | 0.00 | 23 | 1017.2 |
| 20260901190517 | 30 | 287 | 1.6 | 4.8 | 0.00 | 0.00 | 0.00 | 24 | 1017.2 |
| 20260901185557 | 30 | 287 | 1.6 | 3.2 | 0.00 | 0.00 | 0.00 | 23 | 1017.1 |
| 20260901184517 | 31 | 287 | 1.6 | 3.2 | 0.00 | 0.00 | 0.00 | 23 | 1017.1 |
| 20260901183517 | 31 | 287 | 1.6 | 3.2 | 0.00 | 0.00 | 0.00 | 23 | 1017.0 |
| 20260901182517 | 31 | 286 | 1.6 | 4.8 | 0.00 | 0.00 | 0.00 | 22 | 1016.9 |
| 20260901181637 | 32 | 295 | 3.2 | 8.0 | 0.00 | 0.00 | 0.00 | 22 | 1017.0 |
| 20260901180517 | 32 | 278 | 3.2 | 6.4 | 0.00 | 0.00 | 0.00 | 22 | 1017.0 |
| 20260901175557 | 32 | 271 | 3.2 | 12.9 | 0.00 | 0.00 | 0.00 | 21 | 1017.0 |
| 20260901174517 | 33 | 290 | 3.2 | 9.7 | 0.00 | 0.00 | 0.00 | 21 | 1017.1 |
| 20260901173517 | 33 | 294 | 4.8 | 11.3 | 0.00 | 0.00 | 0.00 | 21 | 1017.1 |
| 20260901172517 | 33 | 276 | 6.4 | 11.3 | 0.00 | 0.00 | 0.00 | 21 | 1017.1 |
| 20260901171517 | 33 | 283 | 3.2 | 9.7 | 0.00 | 0.00 | 0.00 | 21 | 1017.0 |
| 20260901170517 | 33 | 285 | 6.4 | 9.7 | 0.00 | 0.00 | 0.00 | 21 | 1017.0 |
| 20260901165517 | 33 | 265 | 6.4 | 16.1 | 0.00 | 0.00 | 0.00 | 22 | 1017.1 |
| 20260901164516 | 33 | 306 | 4.8 | 9.7 | 0.00 | 0.00 | 0.00 | 22 | 1017.2 |
| 20260901163517 | 33 | 299 | 4.8 | 14.5 | 0.00 | 0.00 | 0.00 | 22 | 1017.2 |
| 20260901162557 | 34 | 266 | 9.7 | 17.7 | 0.00 | 0.00 | 0.00 | 21 | 1017.3 |
| 20260901161517 | 33 | 223 | 4.8 | 17.7 | 0.00 | 0.00 | 0.00 | 21 | 1017.2 |
| 20260901160558 | 34 | 276 | 9.7 | 16.1 | 0.00 | 0.00 | 0.00 | 21 | 1017.4 |
| 20260901155557 | 34 | 278 | 3.2 | 11.3 | 0.00 | 0.00 | 0.00 | 21 | 1017.4 |
| 20260901154517 | 33 | 316 | 4.8 | 11.3 | 0.00 | 0.00 | 0.00 | 22 | 1017.4 |
| 20260901153617 | 33 | 272 | 8.0 | 16.1 | 0.00 | 0.00 | 0.00 | 21 | 1017.4 |
| 20260901152517 | 34 | 260 | 6.4 | 17.7 | 0.00 | 0.00 | 0.00 | 21 | 1017.5 |
| 20260901151557 | 33 | 273 | 9.7 | 16.1 | 0.00 | 0.00 | 0.00 | 21 | 1017.6 |
| 20260901150517 | 34 | 256 | 3.2 | 14.5 | 0.00 | 0.00 | 0.00 | 21 | 1017.8 |
| 20260901145517 | 33 | 249 | 6.4 | 16.1 | 0.00 | 0.00 | 0.00 | 22 | 1017.6 |
| 20260901144557 | 33 | 279 | 9.7 | 24.1 | 0.00 | 0.00 | 0.00 | 21 | 1017.7 |
| 20260901143657 | 33 | 258 | 6.4 | 14.5 | 0.00 | 0.00 | 0.00 | 22 | 1017.7 |
| 20260901142557 | 33 | 261 | 6.4 | 14.5 | 0.00 | 0.00 | 0.00 | 22 | 1017.9 |
| 20260901141517 | 33 | 268 | 8.0 | 19.3 | 0.00 | 0.00 | 0.00 | 24 | 1018.0 |
| 20260901140517 | 33 | 274 | 8.0 | 17.7 | 0.00 | 0.00 | 0.00 | 24 | 1018.1 |
| 20260901135557 | 33 | 268 | 8.0 | 16.1 | 0.00 | 0.00 | 0.00 | 25 | 1018.3 |
| 20260901134517 | 32 | 145 | 4.8 | 11.3 | 0.00 | 0.00 | 0.00 | 27 | 1018.2 |
| 20260901133517 | 32 | 222 | 6.4 | 16.1 | 0.00 | 0.00 | 0.00 | 26 | 1018.3 |
| 20260901132557 | 32 | 268 | 4.8 | 14.5 | 0.00 | 0.00 | 0.00 | 26 | 1018.4 |